When you browse on this site, cookies collect data to enhance your experience and personalize the content and advertising you see.
Visit our Privacy Policy to learn more. By continuing to use the site, you agree to this use of cookies and data.

Hourly Weather Saurimo

Today, 14 August, Friday

Time Temperature Precipitation Wind Pressure Humidity
00:00 +20°C° 0 mm 2 mps 670 mmHg 24%
01:00 +19°C° 0 mm 2 mps 670 mmHg 24%
02:00 +18°C° 0 mm 2 mps 670 mmHg 24%
03:00 +18°C° 0 mm 2 mps 670 mmHg 24%
04:00 +17°C° 0 mm 2 mps 670 mmHg 24%
05:00 +18°C° 0 mm 3 mps 670 mmHg 23%
06:00 +19°C° 0 mm 3 mps 670 mmHg 22%
07:00 +20°C° 0 mm 3 mps 670 mmHg 20%
08:00 +23°C° 0 mm 4 mps 671 mmHg 17%
09:00 +28°C° 0 mm 4 mps 672 mmHg 14%
10:00 +33°C° 0 mm 4 mps 672 mmHg 11%
11:00 +35°C° 0 mm 3 mps 672 mmHg 10%
12:00 +36°C° 0 mm 2 mps 671 mmHg 9%
13:00 +38°C° 0 mm 2 mps 671 mmHg 8%
14:00 +38°C° 0 mm 2 mps 670 mmHg 8%
15:00 +36°C° 0 mm 1 mps 669 mmHg 8%
16:00 +36°C° 0 mm 1 mps 669 mmHg 8%
17:00 +33°C° 0 mm 1 mps 668 mmHg 11%
18:00 +29°C° 0 mm 1 mps 668 mmHg 13%
19:00 +26°C° 0 mm 1 mps 668 mmHg 15%
20:00 +24°C° 0 mm 1 mps 668 mmHg 16%
21:00 +23°C° 0 mm 1 mps 668 mmHg 18%
22:00 +21°C° 0 mm 2 mps 668 mmHg 19%
23:00 +21°C° 0 mm 1 mps 668 mmHg 19%

Tomorrow, 15 August, Saturday

Time Temperature Precipitation Wind Pressure Humidity
00:00 +21°C° 0 mm 1 mps 668 mmHg 20%
01:00 +20°C° 0 mm 1 mps 667 mmHg 20%
02:00 +18°C° 0 mm 2 mps 668 mmHg 19%
03:00 +18°C° 0 mm 2 mps 668 mmHg 18%
04:00 +17°C° 0 mm 2 mps 668 mmHg 17%
05:00 +18°C° 0 mm 2 mps 668 mmHg 16%
06:00 +19°C° 0 mm 2 mps 669 mmHg 15%
07:00 +20°C° 0 mm 3 mps 670 mmHg 14%
08:00 +25°C° 0 mm 3 mps 670 mmHg 12%
09:00 +29°C° 0 mm 2 mps 671 mmHg 10%
10:00 +34°C° 0 mm 2 mps 672 mmHg 7%
11:00 +36°C° 0 mm 2 mps 671 mmHg 7%
12:00 +38°C° 0 mm 2 mps 671 mmHg 7%
13:00 +40°C° 0 mm 2 mps 670 mmHg 7%
14:00 +39°C° 0 mm 1 mps 670 mmHg 7%
15:00 +39°C° 0 mm 1 mps 669 mmHg 7%
16:00 +37°C° 0 mm 1 mps 668 mmHg 7%
17:00 +33°C° 0 mm 1 mps 668 mmHg 9%
18:00 +29°C° 0 mm 1 mps 668 mmHg 12%
19:00 +24°C° 0 mm 0 mps 667 mmHg 14%
20:00 +23°C° 0 mm 0 mps 667 mmHg 15%
21:00 +24°C° 0 mm 1 mps 667 mmHg 16%
22:00 +23°C° 0 mm 1 mps 667 mmHg 16%
23:00 +22°C° 0 mm 1 mps 667 mmHg 17%

Day after tomorrow, 16 August, Sunday

Time Temperature Precipitation Wind Pressure Humidity
00:00 +22°C° 0 mm 1 mps 667 mmHg 18%
01:00 +21°C° 0 mm 1 mps 667 mmHg 18%
02:00 +20°C° 0 mm 1 mps 667 mmHg 19%
03:00 +19°C° 0 mm 1 mps 667 mmHg 20%
04:00 +18°C° 0 mm 2 mps 667 mmHg 21%
05:00 +19°C° 0 mm 2 mps 668 mmHg 20%
06:00 +19°C° 0 mm 2 mps 669 mmHg 19%
07:00 +20°C° 0 mm 2 mps 670 mmHg 18%
08:00 +25°C° 0 mm 2 mps 670 mmHg 15%
09:00 +29°C° 0 mm 2 mps 671 mmHg 12%
10:00 +35°C° 0 mm 3 mps 671 mmHg 9%
11:00 +36°C° 0 mm 2 mps 671 mmHg 8%
12:00 +38°C° 0 mm 2 mps 670 mmHg 8%
13:00 +40°C° 0 mm 2 mps 670 mmHg 7%
14:00 +40°C° 0 mm 2 mps 669 mmHg 7%
15:00 +39°C° 0 mm 2 mps 669 mmHg 7%
16:00 +39°C° 0 mm 1 mps 668 mmHg 7%
17:00 +34°C° 0 mm 1 mps 668 mmHg 9%
18:00 +30°C° 0 mm 1 mps 667 mmHg 11%
19:00 +24°C° 0 mm 0 mps 667 mmHg 14%
20:00 +26°C° 0 mm 1 mps 667 mmHg 15%
21:00 +25°C° 0 mm 1 mps 668 mmHg 15%
22:00 +24°C° 0 mm 1 mps 668 mmHg 16%
23:00 +24°C° 0 mm 1 mps 668 mmHg 16%

17 August, Monday

Time Temperature Precipitation Wind Pressure Humidity
00:00 +23°C° 0 mm 1 mps 668 mmHg 16%
01:00 +22°C° 0 mm 1 mps 668 mmHg 16%
02:00 +21°C° 0 mm 1 mps 667 mmHg 17%
03:00 +20°C° 0 mm 1 mps 667 mmHg 17%
04:00 +19°C° 0 mm 1 mps 667 mmHg 18%
05:00 +20°C° 0 mm 1 mps 668 mmHg 18%
06:00 +21°C° 0 mm 1 mps 668 mmHg 18%
07:00 +21°C° 0 mm 1 mps 669 mmHg 17%
08:00 +26°C° 0 mm 1 mps 670 mmHg 15%
09:00 +30°C° 0 mm 2 mps 670 mmHg 13%
10:00 +35°C° 0 mm 3 mps 671 mmHg 10%
11:00 +37°C° 0 mm 3 mps 671 mmHg 10%
12:00 +38°C° 0 mm 3 mps 670 mmHg 10%
13:00 +39°C° 0 mm 2 mps 669 mmHg 10%
14:00 +39°C° 0 mm 2 mps 669 mmHg 10%
15:00 +39°C° 0 mm 2 mps 668 mmHg 10%
16:00 +39°C° 0 mm 2 mps 668 mmHg 10%
17:00 +34°C° 0 mm 1 mps 668 mmHg 13%
18:00 +30°C° 0 mm 1 mps 667 mmHg 16%
19:00 +25°C° 0 mm 0 mps 667 mmHg 19%
20:00 +24°C° 0 mm 0 mps 667 mmHg 20%
21:00 +23°C° 0 mm 0 mps 668 mmHg 21%
22:00 +22°C° 0 mm 0 mps 668 mmHg 22%
23:00 +22°C° 0 mm 0 mps 668 mmHg 23%

18 August, Tuesday

Time Temperature Precipitation Wind Pressure Humidity
00:00 +21°C° 0 mm 0 mps 667 mmHg 24%
01:00 +22°C° 0 mm 1 mps 667 mmHg 26%
02:00 +21°C° 0 mm 1 mps 667 mmHg 27%
03:00 +21°C° 0 mm 1 mps 667 mmHg 28%
04:00 +20°C° 0 mm 1 mps 667 mmHg 29%
05:00 +21°C° 0 mm 1 mps 668 mmHg 28%
06:00 +22°C° 0 mm 1 mps 668 mmHg 28%
07:00 +20°C° 0 mm 0 mps 669 mmHg 27%
08:00 +27°C° 0 mm 1 mps 670 mmHg 23%
09:00 +31°C° 0 mm 1 mps 671 mmHg 19%
10:00 +36°C° 0 mm 1 mps 672 mmHg 16%
11:00 +37°C° 0 mm 1 mps 671 mmHg 15%
12:00 +39°C° 0 mm 1 mps 670 mmHg 14%
13:00 +41°C° 0 mm 1 mps 670 mmHg 13%
14:00 +40°C° 0 mm 1 mps 669 mmHg 13%
15:00 +39°C° 0 mm 2 mps 668 mmHg 13%
16:00 +38°C° 0 mm 2 mps 667 mmHg 13%
17:00 +35°C° 0 mm 2 mps 667 mmHg 17%
18:00 +31°C° 0 mm 2 mps 667 mmHg 20%
19:00 +29°C° 0 mm 2 mps 667 mmHg 24%
20:00 +28°C° 0 mm 2 mps 667 mmHg 26%
21:00 +27°C° 0 mm 2 mps 667 mmHg 28%
22:00 +26°C° 0 mm 2 mps 668 mmHg 30%
23:00 +26°C° 0 mm 2 mps 667 mmHg 32%

19 August, Wednesday

Time Temperature Precipitation Wind Pressure Humidity
00:00 +25°C° 0 mm 1 mps 667 mmHg 34%
01:00 +25°C° 0 mm 1 mps 667 mmHg 35%
02:00 +24°C° 0 mm 1 mps 667 mmHg 36%
03:00 +24°C° 0 mm 1 mps 667 mmHg 37%
04:00 +23°C° 0 mm 1 mps 667 mmHg 38%
05:00 +24°C° 0 mm 1 mps 668 mmHg 37%
06:00 +24°C° 0 mm 1 mps 669 mmHg 37%
07:00 +25°C° 0 mm 2 mps 669 mmHg 36%
08:00 +28°C° 0 mm 1 mps 670 mmHg 32%
09:00 +31°C° 0 mm 1 mps 671 mmHg 27%
10:00 +35°C° 0 mm 1 mps 672 mmHg 23%
11:00 +36°C° 0 mm 2 mps 671 mmHg 21%
12:00 +37°C° 0 mm 2 mps 670 mmHg 20%
13:00 +38°C° 0 mm 2 mps 669 mmHg 19%
14:00 +37°C° 0 mm 2 mps 669 mmHg 20%
15:00 +37°C° 0 mm 2 mps 669 mmHg 20%
16:00 +36°C° 0 mm 2 mps 668 mmHg 21%
17:00 +34°C° 0 mm 2 mps 668 mmHg 25%
18:00 +31°C° 0 mm 2 mps 668 mmHg 29%
19:00 +29°C° 0 mm 2 mps 668 mmHg 33%
20:00 +28°C° 0 mm 2 mps 668 mmHg 36%
21:00 +27°C° 0 mm 1 mps 668 mmHg 39%
22:00 +27°C° 0 mm 1 mps 669 mmHg 42%
23:00 +26°C° 0 mm 1 mps 668 mmHg 42%
Show more